Regional Weather Roundup
Issued by NWS

Home | Current Version | Previous Version | Text Only | Print | Product List | Glossary On
Versions: 1 2 3 4 5 6 7 8 9 10 11 12 13 14 15 16 17 18 19 20 21 22 23 24 25 26 27 28 29 30 31 32 33 34 35 36 37 38 39 40 41 42 43 44 45 46 47 48 49 50
000
ASUS46 KSTO 282115
RWRCA

NORTHERN AND CENTRAL CA REGIONAL WEATHER ROUNDUP
NATIONAL WEATHER SERVICE SACRAMENTO CA
200 PM PDT TUE MAR 28 2017

NOTE: FAIR INDICATES FEW OR NO CLOUDS BELOW 12,000 FEET WITH NO
SIGNIFICANT WEATHER AND/OR OBSTRUCTIONS TO VISIBILITY.

CAZ001-003-282200-
NORTHWEST AREA

CITY           SKY/WX    TMP DP  RH WIND       PRES   REMARKS
CRESCENT CITY  CLOUDY    54  45  71 W7        30.37F
UKIAH          SUNNY     70  41  34 NW14G25   30.22F
$$

CAZ006-505>513-282200-
BAY AREA

CITY           SKY/WX    TMP DP  RH WIND       PRES   REMARKS
SANTA ROSA     SUNNY     73  44  35 NW14G22   30.17F
SAN RAFAEL     N/A       69  MM  MM MISG
NAPA           SUNNY     76  39  26 N22G29    30.16F
CONCORD        SUNNY     74  40  29 N15G24    30.17F
OAKLAND CITY   N/A      MM  MM  MM MISG
OAKLAND        MOSUNNY   72  45  37 NW15      30.18F
SAN FRAN CITY  N/A       65  MM  49 MISG
SAN FRAN ARPT  MOSUNNY   65  48  54 W22G30    30.19F
LIVERMORE      SUNNY     70  40  33 VRB6      30.17F
HAYWARD        SUNNY     68  46  45 W9        30.18F
REDWOOD CITY   N/A       70  MM  39 MISG
MOFFETT ARPT   SUNNY     69  42  37 NW13G22   30.19F
SAN JOSE ARPT  MOSUNNY   68  44  42 W15       30.18F
$$
CAZ034-037-514>518-282200-
CENTRAL COAST

CITY           SKY/WX    TMP DP  RH WIND       PRES   REMARKS
WATSONVILLE    SUNNY     70  43  37 VRB5      30.17F
SALINAS        SUNNY     66  44  45 W9G18     30.17F
MONTEREY       SUNNY     60  50  69 W12       30.20F
SAN LUIS OBISP SUNNY     70  50  49 NW14G22   30.11F
SANTA MARIA    SUNNY     66  50  56 NW21      30.10F
$$
CAZ015-016-282200-
NORTHERN SACRAMENTO VALLEY

CITY           SKY/WX    TMP DP  RH WIND       PRES   REMARKS
REDDING        SUNNY     70  40  33 N14G21    30.25F
RED BLUFF      SUNNY     69  38  32 N21G31    30.24F
OROVILLE       SUNNY     71  42  35 NW17G30   30.16F
$$
CAZ016>018-282200-
SOUTHERN SACRAMENTO VALLEY

CITY           SKY/WX    TMP DP  RH WIND       PRES   REMARKS
AUBURN         SUNNY     64  39  39 NW9G16    30.16F
BEALE AFB      SUNNY     69  43  38 NW28G35   30.12F
LINCOLN        FAIR      70  37  30 N24       30.14F
MARYSVILLE     SUNNY     70  41  34 NW21G37   30.15F
SAC INTL ARPT  SUNNY     70  45  40 N21G30    30.15F
MATHER AIRPORT SUNNY     70  39  32 MISG      30.15F
DOWNTOWN SAC   N/A       70  MM  MM MISG
SAC EXEC ARPT  SUNNY     70  42  36 NW20G32   30.15F
VACAVILLE      SUNNY     73  40  30 N22G29    30.17F
TRAVIS AFB     SUNNY     70  41  35 N21G30    30.15F
$$
CAZ019>021-282200-
SAN JOAQUIN VALLEY

CITY           SKY/WX    TMP DP  RH WIND       PRES   REMARKS
STOCKTON       SUNNY     72  41  32 NW21G28   30.15F
MODESTO        SUNNY     69  44  40 N13G21    30.15F
MERCED         SUNNY     65  42  43 NW7       30.16S
FRESNO         PTSUNNY   64  45  49 SE8       30.16S
HANFORD        SUNNY     64  45  49 CALM      30.14F
PORTERVILLE    SUNNY     66  46  48 S8        30.14F
BAKERSFIELD    SUNNY     66  42  41 VRB5      30.14F
$$
CAZ011-012-071-282200-
NORTHERN MOUNTAINS

CITY           SKY/WX    TMP DP  RH WIND       PRES   REMARKS
YREKA          MOSUNNY   55  36  48 NW5       30.36F
MOUNT SHASTA   PTSUNNY   55  33  43 NW9G18    30.32S
$$
CAZ011-012-071-282200-
SIERRA NEVADA MTNS

CITY           SKY/WX    TMP DP  RH WIND       PRES   REMARKS
BLUE CANYON    SUNNY     52  24  33 NE7       30.22S
TRUCKEE        MOSUNNY   46  27  46 W3        30.25S
TAHOE VLY ARPT SUNNY     45  23  42 VRB3      30.24R
MAMMOTH LAKES  FAIR      49  15  26 CALM      30.23F
$$



USA.gov is the U.S. government's official web portal to all federal, state and local government web resources and services.